Tracking 29892 objects as of 21-Nov-2024
HD Live streaming from Space Station
objects crossing your sky now

SL-6 R/B(2)

Track SL-6 R/B(2) now!


NORAD ID: 17216
Int'l Code: 1986-098D
Perigee: 5,304.9 km
Apogee: 34,474.3 km
Inclination: 70.0 °
Period: 705.9 minutes
Semi major axis: 26260 km
RCS: 6.7324 m2 (large)
Launch date: December 12, 1986
Source: Commonwealth of Independent States (former USSR) (CIS)
Launch site: PLESETSK MISSILE AND SPACE COMPLEX (PKMTR)

Note: This is a ROCKET BODY
Your satellite tracking list
Your tracking list is empty




NASA's NSSDC Master Catalog

Two Line Element Set (TLE):
1 17216U 86098D   24324.38660730  .00000005  00000-0  00000-0 0  9991
2 17216  69.9774 119.2443 5553837  32.9423  92.8819  2.04007474282685
Source of the keplerian elements: AFSPC